Tracking 35331 objects as of 16-Sep-2026
HD Live streaming from Space Station
objects crossing your sky now

FALCON 9 DEB


FALCON 9 DEB is no longer on orbit


NORAD ID: 52386
Int'l Code: 2022-045BH
Launch date: April 29, 2022
Source: United States (US)
Launch site: AIR FORCE EASTERN TEST RANGE (AFETR)
Decay date: 2022-06-09

Note: This is SATELLITE DEBRIS
Your satellite tracking list
Your tracking list is empty




NASA's NSSDC Master Catalog

Two Line Element Set (TLE):
1 52386U 22045BH  22160.38561322  .08596953  12553-4  30789-3 0  9993
2 52386  53.1889 227.9008 0006525 329.7843  30.2830 16.43957066  6494
Source of the keplerian elements: AFSPC